ǯ����,��ʬ��,�Ǿ��������١�,ʿ���������١�,�����������١�,�Ǿ���®(m/s),ʿ����®(m/s),������®(m/s),����(���,���١ʡ��,����(hPa),�߱���(mm),�߱�����(�á�,�߱�����(mm/h),�ߤҤ礦��(hit/���),�ߤҤ礦����(�á�,�ߤҤ礦����(hit/���h),�ҡ�������(���,�ҡ������Ű���V),�Ÿ��Ű���V),�����Ű���V)
2008/09/01,00:00:01,114,293,108,0.0,1.8,6.3,27.5,68.9,1000.8,0.00,0,0.0,0.0,0,0.0,26.4,0.0,12.2,3.472
2008/09/01,00:10:01,136,298,117,0.0,1.9,5.8,27.4,68.7,1000.8,0.00,0,0.0,0.0,0,0.0,26.4,0.0,12.0,3.469
2008/09/01,00:20:01,133,311,129,0.0,1.9,7.5,27.4,67.8,1000.7,0.00,0,0.0,0.0,0,0.0,26.6,0.0,11.7,3.469
2008/09/01,00:30:01,133,312,126,0.0,2.0,7.6,27.4,68.5,1000.5,0.00,0,0.0,0.0,0,0.0,26.4,0.0,12.2,3.470
2008/09/01,00:40:01,116,290,100,0.0,1.9,6.3,27.3,67.5,1000.5,0.00,0,0.0,0.0,0,0.0,26.3,0.0,11.9,3.468
2008/09/01,00:50:01,117,297,116,0.0,2.0,7.7,27.3,67.6,1000.4,0.00,0,0.0,0.0,0,0.0,26.4,0.0,11.9,3.469
2008/09/01,01:00:01,120,300,117,0.0,2.0,6.0,27.3,68.2,1000.4,0.00,0,0.0,0.0,0,0.0,26.4,0.0,11.9,3.470
2008/09/01,01:10:01,123,301,114,0.0,1.9,7.4,27.3,68.9,1000.4,0.00,0,0.0,0.0,0,0.0,26.3,0.0,12.0,3.472
2008/09/01,01:20:01,113,289,110,0.0,1.9,6.0,27.3,66.5,1000.3,0.00,0,0.0,0.0,0,0.0,26.4,0.0,11.8,3.469
2008/09/01,01:30:01,105,284,99,0.0,2.0,6.5,27.3,66.3,1000.2,0.00,0,0.0,0.0,0,0.0,26.3,0.0,11.7,3.469
2008/09/01,01:40:01,102,278,100,0.0,1.7,5.4,27.3,67.1,1000.2,0.00,0,0.0,0.0,0,0.0,26.3,0.0,11.7,3.470
2008/09/01,01:50:01,113,295,110,0.0,1.8,6.0,27.3,67.8,1000.1,0.00,0,0.0,0.0,0,0.0,26.3,0.0,12.0,3.470
2008/09/01,02:00:01,108,283,98,0.0,1.7,6.1,27.2,68.1,999.9,0.00,0,0.0,0.0,0,0.0,26.1,0.0,12.0,3.470
2008/09/01,02:10:01,104,275,83,0.0,2.0,7.4,27.2,68.3,1000.0,0.00,0,0.0,0.0,0,0.0,26.3,0.0,11.8,3.469
2008/09/01,02:20:01,96,274,92,0.0,1.7,5.8,27.2,69.5,1000.0,0.00,0,0.0,0.0,0,0.0,26.1,0.0,11.9,3.470
2008/09/01,02:30:01,92,272,76,0.0,1.6,7.4,27.2,69.4,1000.0,0.00,0,0.0,0.0,0,0.0,26.3,0.0,12.2,3.469
2008/09/01,02:40:01,109,288,101,0.0,1.6,6.2,27.1,70.5,1000.0,0.00,0,0.0,0.0,0,0.0,26.1,0.0,11.7,3.470
2008/09/01,02:50:01,105,278,97,0.0,1.5,7.9,27.1,71.5,1000.0,0.00,0,0.0,0.0,0,0.0,26.3,0.0,11.8,3.470
2008/09/01,03:00:01,83,263,83,0.0,0.9,3.4,27.0,72.0,1000.0,0.00,0,0.0,0.0,0,0.0,25.9,0.0,11.8,3.470
2008/09/01,03:10:01,94,273,83,0.0,1.7,5.6,27.0,72.2,999.9,0.00,0,0.0,0.0,0,0.0,25.8,0.0,12.0,3.470
2008/09/01,03:20:01,117,276,90,0.0,1.6,5.6,27.1,72.8,1000.0,0.00,0,0.0,0.0,0,0.0,25.9,0.0,11.8,3.469
2008/09/01,03:30:01,112,281,98,0.0,1.4,4.0,27.1,72.9,1000.0,0.00,0,0.0,0.0,0,0.0,26.1,0.0,11.9,3.470
2008/09/01,03:40:01,103,263,80,0.0,1.1,4.1,27.1,73.1,999.9,0.00,0,0.0,0.0,0,0.0,26.1,0.0,11.9,3.469
2008/09/01,03:50:01,97,278,90,0.0,1.3,4.2,27.1,73.1,999.8,0.00,0,0.0,0.0,0,0.0,26.1,0.0,12.1,3.469
2008/09/01,04:00:01,99,275,77,0.1,1.4,4.1,27.1,73.0,999.8,0.00,0,0.0,0.0,0,0.0,26.1,0.0,11.9,3.470
2008/09/01,04:10:01,93,268,82,0.0,1.4,5.3,27.1,73.1,999.7,0.00,0,0.0,0.0,0,0.0,26.1,0.0,12.2,3.470
2008/09/01,04:20:01,73,253,59,0.0,1.4,5.2,27.1,72.9,999.7,0.00,0,0.0,0.0,0,0.0,26.3,0.0,12.2,3.469
2008/09/01,04:30:01,136,261,80,0.0,1.4,5.6,27.1,74.0,999.7,0.00,0,0.0,0.0,0,0.0,26.3,0.0,11.9,3.469
2008/09/01,04:40:01,106,270,83,0.0,1.4,6.7,27.1,74.0,999.8,0.00,0,0.0,0.0,0,0.0,26.3,0.0,11.8,3.470
2008/09/01,04:50:01,79,257,73,0.0,1.6,4.5,27.1,74.1,999.8,0.00,0,0.0,0.0,0,0.0,26.3,0.0,11.8,3.469
2008/09/01,05:00:01,157,258,57,0.0,1.4,6.8,27.2,75.1,999.7,0.00,0,0.0,0.0,0,0.0,26.3,0.0,12.1,3.469
2008/09/01,05:10:01,84,257,65,0.1,1.7,4.5,27.2,75.9,999.6,0.00,0,0.0,0.0,0,0.0,26.1,0.0,11.9,3.469
2008/09/01,05:20:01,81,257,12,0.1,1.6,4.2,27.1,75.7,999.6,0.00,0,0.0,0.0,0,0.0,26.3,0.0,12.1,3.470
2008/09/01,05:30:01,81,253,63,0.0,1.6,4.6,27.2,75.4,999.5,0.00,0,0.0,0.0,0,0.0,26.3,0.0,11.9,3.469
2008/09/01,05:40:01,152,256,52,0.0,1.9,4.8,27.2,76.1,999.6,0.00,0,0.0,0.0,0,0.0,26.3,0.0,11.7,3.469
2008/09/01,05:50:01,161,253,325,0.1,1.9,7.8,27.2,75.4,999.6,0.00,0,0.0,0.0,0,0.0,26.4,0.0,11.8,3.469
2008/09/01,06:00:01,197,259,330,0.1,2.0,4.5,27.3,75.4,999.6,0.00,0,0.0,0.0,0,0.0,26.9,0.0,11.7,3.469
2008/09/01,06:10:01,188,261,79,0.1,2.0,5.0,27.3,74.9,999.5,0.00,0,0.0,0.0,0,0.0,26.6,0.0,11.7,3.469
2008/09/01,06:20:01,89,261,80,0.0,1.7,5.2,27.4,73.8,999.6,0.00,0,0.0,0.0,0,0.0,26.8,0.0,11.7,3.470
2008/09/01,06:30:01,115,258,77,0.0,2.1,6.5,27.6,70.4,999.7,0.00,0,0.0,0.0,0,0.0,27.1,0.0,11.7,3.470
2008/09/01,06:40:01,149,257,70,0.0,1.9,5.5,27.7,70.4,999.8,0.00,0,0.0,0.0,0,0.0,27.3,0.0,11.7,3.469
2008/09/01,06:50:01,127,257,72,0.1,1.8,5.1,27.7,70.8,1000.0,0.00,0,0.0,0.0,0,0.0,27.3,0.0,11.7,3.469
2008/09/01,07:00:01,112,257,72,0.1,1.9,4.9,27.8,71.0,1000.1,0.00,0,0.0,0.0,0,0.0,27.3,0.0,12.0,3.469
2008/09/01,07:10:01,81,261,35,0.0,2.2,7.0,27.8,71.7,1000.2,0.00,0,0.0,0.0,0,0.0,27.4,0.0,11.7,3.469
2008/09/01,07:20:01,83,257,75,0.1,2.1,6.4,27.8,72.2,1000.3,0.00,0,0.0,0.0,0,0.0,27.4,0.0,11.9,3.470
2008/09/01,07:30:01,102,258,73,0.0,2.1,6.2,27.9,73.5,1000.3,0.00,0,0.0,0.0,0,0.0,27.4,0.0,12.0,3.469
2008/09/01,07:40:01,79,254,70,0.0,2.2,6.7,28.0,76.4,1000.3,0.00,0,0.0,0.0,0,0.0,27.6,0.0,12.1,3.469
2008/09/01,07:50:01,82,258,67,0.1,2.6,7.9,27.9,76.5,1000.3,0.00,0,0.0,0.0,0,0.0,27.8,0.0,12.0,3.469
2008/09/01,08:00:01,136,256,59,0.2,2.8,6.9,27.8,77.1,1000.3,0.00,0,0.0,0.0,0,0.0,27.9,0.0,12.0,3.470
2008/09/01,08:10:01,67,238,57,0.0,2.3,6.5,27.6,77.3,1000.3,0.00,0,0.0,0.0,0,0.0,27.3,0.0,11.7,3.469
2008/09/01,08:20:01,73,241,326,0.0,2.2,5.7,27.6,77.7,1000.4,0.00,0,0.0,0.0,0,0.0,27.4,0.0,11.7,3.468
2008/09/01,08:30:01,82,254,68,0.0,2.2,5.4,27.8,78.1,1000.5,0.00,0,0.0,0.0,0,0.0,27.9,0.0,11.9,3.469
2008/09/01,08:40:01,107,260,325,0.4,2.8,5.9,28.0,77.6,1000.5,0.00,0,0.0,0.0,0,0.0,28.8,0.0,12.0,3.469
2008/09/01,08:50:01,202,260,35,0.3,3.1,11.2,28.1,77.1,1000.6,0.00,0,0.0,0.0,0,0.0,29.1,0.0,11.7,3.469
2008/09/01,09:00:01,79,258,63,0.0,2.9,7.0,28.1,77.5,1000.8,0.00,0,0.0,0.0,0,0.0,28.8,0.0,11.7,3.468
2008/09/01,09:10:01,161,263,77,0.0,3.0,8.7,28.2,78.3,1000.9,0.00,0,0.0,0.0,0,0.0,29.5,0.0,11.8,3.469
2008/09/01,09:20:01,113,260,66,0.1,3.2,10.8,28.3,76.0,1001.0,0.00,0,0.0,0.0,0,0.0,29.5,0.0,12.0,3.469
2008/09/01,09:30:01,83,259,66,0.1,3.2,10.6,28.3,74.3,1001.0,0.00,0,0.0,0.0,0,0.0,29.3,0.0,11.6,3.469
2008/09/01,09:40:01,83,263,75,0.1,2.7,9.4,28.6,74.7,1001.0,0.00,0,0.0,0.0,0,0.0,30.1,0.0,11.7,3.468
2008/09/01,09:50:01,94,263,51,0.0,3.1,10.1,28.5,75.5,1000.9,0.00,0,0.0,0.0,0,0.0,29.6,0.0,11.8,3.468
2008/09/01,10:00:01,95,263,81,0.0,2.9,10.1,28.5,76.4,1001.0,0.00,0,0.0,0.0,0,0.0,29.6,0.0,11.8,3.468
2008/09/01,10:10:01,95,259,76,0.0,2.9,8.1,28.4,76.5,1001.0,0.00,0,0.0,0.0,0,0.0,29.3,0.0,11.8,3.468
2008/09/01,10:20:01,111,264,82,0.0,2.5,7.9,28.8,76.4,1001.1,0.00,0,0.0,0.0,0,0.0,30.6,0.0,11.9,3.467
2008/09/01,10:30:01,82,261,64,0.1,3.0,8.6,29.0,74.4,1001.1,0.00,0,0.0,0.0,0,0.0,31.6,0.0,12.0,3.465
2008/09/01,10:40:01,132,261,41,0.1,3.4,9.0,29.0,74.5,1001.1,0.00,0,0.0,0.0,0,0.0,31.5,0.0,11.9,3.468
2008/09/01,10:50:01,156,262,65,0.2,3.7,9.2,29.2,73.6,1001.2,0.00,0,0.0,0.0,0,0.0,31.8,0.0,12.1,3.468
2008/09/01,11:00:01,134,260,32,0.2,3.8,11.9,29.0,75.4,1001.2,0.00,0,0.0,0.0,0,0.0,31.1,0.0,11.8,3.468
2008/09/01,11:10:01,141,262,50,0.1,3.7,10.0,28.8,77.9,1001.1,0.00,0,0.0,0.0,0,0.0,30.1,0.0,11.9,3.468
2008/09/01,11:20:01,146,261,10,0.2,3.8,11.7,28.4,77.3,1000.9,0.00,0,0.0,0.0,0,0.0,29.0,0.0,11.7,3.469
2008/09/01,11:30:01,131,262,81,0.1,3.2,9.8,28.3,78.0,1000.9,0.00,0,0.0,0.0,0,0.0,28.8,0.0,12.1,3.469
2008/09/01,11:40:01,154,260,71,0.3,3.6,10.8,28.9,75.9,1001.0,0.00,0,0.0,0.0,0,0.0,30.6,0.0,12.1,3.468
2008/09/01,11:50:01,98,261,345,0.2,3.7,8.4,28.8,76.3,1000.9,0.00,0,0.0,0.0,0,0.0,30.3,0.0,11.7,3.469
2008/09/01,12:00:01,85,257,75,0.0,2.8,8.7,29.1,75.1,1000.8,0.00,0,0.0,0.0,0,0.0,31.5,0.0,11.8,3.468
2008/09/01,12:10:01,131,258,49,0.0,3.3,11.5,28.9,75.7,1000.6,0.00,0,0.0,0.0,0,0.0,31.0,0.0,11.8,3.469
2008/09/01,12:20:01,146,261,76,0.0,2.8,10.0,29.0,78.0,1000.3,0.00,0,0.0,0.0,0,0.0,30.6,0.0,11.9,3.469
2008/09/01,12:30:01,120,258,73,0.0,2.4,9.6,29.8,76.7,1000.5,0.00,0,0.0,0.0,0,0.0,32.8,0.0,12.1,3.467
2008/09/01,12:40:01,154,244,32,0.1,2.6,8.9,30.1,73.0,1000.4,0.00,0,0.0,0.0,0,0.0,34.5,0.0,11.8,3.468
2008/09/01,12:50:01,139,241,25,0.0,2.9,11.1,29.5,74.8,1000.4,0.00,0,0.0,0.0,0,0.0,33.1,0.0,12.1,3.468
2008/09/01,13:00:01,64,238,358,0.2,4.0,14.0,28.6,76.4,1000.4,0.00,0,0.0,0.0,0,0.0,30.3,0.0,11.8,3.468
2008/09/01,13:10:01,149,238,48,0.1,3.4,11.7,28.8,73.9,1000.2,0.00,0,0.0,0.0,0,0.0,30.3,0.0,12.0,3.469
2008/09/01,13:20:01,155,240,17,0.3,3.7,9.5,29.1,73.2,1000.1,0.00,0,0.0,0.0,0,0.0,31.3,0.0,11.7,3.468
2008/09/01,13:30:01,66,247,61,0.0,2.7,9.1,29.0,73.4,1000.2,0.01,40,0.0,0.0,0,0.0,30.8,0.0,12.0,3.469
2008/09/01,13:40:01,129,261,74,0.2,3.0,9.7,28.7,76.7,1000.0,0.18,280,0.0,0.0,0,0.0,29.6,0.0,11.7,3.469
2008/09/01,13:50:01,117,265,50,0.1,3.5,8.8,28.4,78.6,1000.0,0.01,140,0.0,0.0,0,0.0,28.8,0.0,11.8,3.469
2008/09/01,14:00:01,94,259,53,0.1,3.6,9.2,28.0,77.9,1000.0,0.00,0,0.0,0.0,0,0.0,28.8,0.0,11.8,3.468
2008/09/01,14:10:01,89,263,83,0.1,3.8,11.5,27.7,82.7,1000.0,0.87,130,36.1,0.0,0,0.0,27.4,0.0,12.1,3.469
2008/09/01,14:20:01,99,272,88,0.0,2.3,8.6,26.8,86.3,999.9,3.16,600,7.2,0.0,0,0.0,25.9,0.0,11.9,3.472
2008/09/01,14:30:01,102,261,80,0.1,2.5,8.1,26.6,87.8,999.6,0.17,310,0.0,0.0,0,0.0,25.8,0.0,11.8,3.469
2008/09/01,14:40:01,118,262,25,0.1,3.7,10.3,26.7,87.4,999.8,0.00,0,0.0,0.0,0,0.0,26.1,0.0,12.0,3.469
2008/09/01,14:50:01,142,262,78,0.1,3.6,8.7,26.4,86.0,999.9,0.00,0,0.0,0.0,0,0.0,26.8,0.0,11.7,3.469
2008/09/01,15:00:01,136,254,73,0.0,2.1,6.6,26.8,84.3,999.7,0.00,0,0.0,0.0,0,0.0,27.4,0.0,11.7,3.469
2008/09/01,15:10:01,79,246,19,0.1,2.2,6.7,27.1,82.8,999.6,0.00,0,0.0,0.0,0,0.0,28.1,0.0,12.0,3.469
2008/09/01,15:20:01,74,244,63,0.1,2.1,7.1,27.5,81.9,999.7,0.00,0,0.0,0.0,0,0.0,28.6,0.0,11.9,3.469
2008/09/01,15:30:01,64,245,62,0.1,2.0,7.2,27.9,81.0,999.9,0.00,0,0.0,0.0,0,0.0,30.0,0.0,11.5,3.469
2008/09/01,15:40:01,73,244,48,0.1,1.9,5.0,28.7,78.7,1000.0,0.00,0,0.0,0.0,0,0.0,32.0,0.0,11.7,3.468
2008/09/01,15:50:01,75,243,45,0.1,2.4,6.4,28.7,78.3,999.9,0.00,0,0.0,0.0,0,0.0,31.8,0.0,11.7,3.468
2008/09/01,16:00:01,82,240,307,0.5,3.1,6.8,28.7,79.2,999.8,0.00,0,0.0,0.0,0,0.0,31.1,0.0,11.8,3.469
2008/09/01,16:10:01,160,240,58,0.2,3.0,6.7,28.8,78.4,999.8,0.00,0,0.0,0.0,0,0.0,31.1,0.0,11.9,3.468
2008/09/01,16:20:01,146,240,300,0.4,3.2,7.9,28.5,78.2,999.8,0.00,0,0.0,0.0,0,0.0,30.6,0.0,11.7,3.467
2008/09/01,16:30:01,79,241,60,0.0,2.6,6.7,28.5,77.9,999.8,0.00,0,0.0,0.0,0,0.0,30.1,0.0,12.2,3.468
2008/09/01,16:40:01,74,244,58,0.1,2.3,6.6,29.0,75.5,999.9,0.00,0,0.0,0.0,0,0.0,31.0,0.0,12.1,3.468
2008/09/01,16:50:01,81,242,58,0.0,2.1,5.6,29.2,74.0,999.9,0.00,0,0.0,0.0,0,0.0,31.6,0.0,11.8,3.467
2008/09/01,17:00:01,97,254,71,0.1,2.0,7.2,29.4,74.6,999.8,0.00,0,0.0,0.0,0,0.0,31.5,0.0,11.7,3.467
2008/09/01,17:10:01,80,260,54,0.0,2.4,6.6,29.2,72.8,999.9,0.00,0,0.0,0.0,0,0.0,31.3,0.0,12.2,3.468
2008/09/01,17:20:01,130,256,72,0.0,2.4,7.2,29.1,73.8,1000.1,0.00,0,0.0,0.0,0,0.0,30.6,0.0,11.8,3.468
2008/09/01,17:30:01,77,251,56,0.0,1.9,5.9,28.7,76.5,1000.0,0.00,0,0.0,0.0,0,0.0,29.6,0.0,11.6,3.469
2008/09/01,17:40:01,61,239,52,0.1,2.0,5.7,28.4,78.6,1000.0,0.05,150,0.0,0.0,0,0.0,28.5,0.0,12.0,3.469
2008/09/01,17:50:01,111,251,67,0.0,2.1,7.0,28.1,79.7,1000.0,0.00,0,0.0,0.0,0,0.0,27.8,0.0,12.2,3.469
2008/09/01,18:00:01,137,249,71,0.0,2.4,6.5,28.1,80.7,1000.0,0.00,0,0.0,0.0,0,0.0,27.6,0.0,12.0,3.469
2008/09/01,18:10:01,133,258,60,0.1,2.5,6.0,28.2,81.7,1000.1,0.00,0,0.0,0.0,0,0.0,27.9,0.0,11.6,3.469
2008/09/01,18:20:01,92,274,89,0.0,2.0,6.8,28.1,79.5,1000.1,0.00,0,0.0,0.0,0,0.0,27.8,0.0,12.1,3.470
2008/09/01,18:30:01,114,291,108,0.0,2.2,6.4,28.0,78.7,1000.1,0.00,0,0.0,0.0,0,0.0,27.8,0.0,12.1,3.469
2008/09/01,18:40:01,133,314,128,0.0,2.2,6.8,28.0,78.9,1000.2,0.00,0,0.0,0.0,0,0.0,27.6,0.0,11.7,3.468
2008/09/01,18:50:01,146,323,144,0.0,2.7,6.7,27.9,79.9,1000.5,0.00,0,0.0,0.0,0,0.0,27.4,0.0,12.0,3.468
2008/09/01,19:00:01,146,327,143,0.1,2.9,8.6,27.9,81.1,1000.3,0.00,0,0.0,0.0,0,0.0,27.1,0.0,11.9,3.469
2008/09/01,19:10:01,165,331,149,0.1,3.5,9.3,27.9,81.8,1000.4,0.00,0,0.0,0.0,0,0.0,27.1,0.0,12.2,3.469
2008/09/01,19:20:01,167,342,152,0.2,3.7,8.3,27.7,80.8,1000.4,0.00,0,0.0,0.0,0,0.0,26.9,0.0,11.8,3.470
2008/09/01,19:30:01,169,338,155,0.1,3.3,8.2,27.7,80.1,1000.4,0.00,0,0.0,0.0,0,0.0,26.9,0.0,12.2,3.469
2008/09/01,19:40:01,163,343,152,0.1,3.6,8.3,27.8,80.2,1000.4,0.00,0,0.0,0.0,0,0.0,26.8,0.0,11.9,3.469
2008/09/01,19:50:01,163,342,156,0.0,3.5,8.6,27.6,79.5,1000.6,0.00,0,0.0,0.0,0,0.0,26.9,0.0,11.7,3.470
2008/09/01,20:00:01,162,338,154,0.0,3.4,8.4,27.7,80.1,1000.8,0.00,0,0.0,0.0,0,0.0,26.9,0.0,12.1,3.469
2008/09/01,20:10:01,161,337,158,0.0,3.4,8.7,27.5,78.2,1000.9,0.00,0,0.0,0.0,0,0.0,26.9,0.0,11.7,3.470
2008/09/01,20:20:01,157,333,144,0.1,3.1,8.7,27.6,78.6,1001.2,0.00,0,0.0,0.0,0,0.0,26.9,0.0,11.6,3.469
2008/09/01,20:30:01,183,345,160,0.1,3.4,9.5,27.6,79.4,1001.2,0.00,0,0.0,0.0,0,0.0,26.8,0.0,12.0,3.469
2008/09/01,20:40:01,167,342,131,0.0,3.8,8.6,27.4,77.8,1001.3,0.00,0,0.0,0.0,0,0.0,26.8,0.0,11.6,3.469
2008/09/01,20:50:01,166,344,153,0.0,3.5,9.4,27.4,76.8,1001.3,0.00,0,0.0,0.0,0,0.0,26.8,0.0,12.0,3.468
2008/09/01,21:00:01,163,338,149,0.0,3.3,8.8,27.4,76.9,1001.5,0.00,0,0.0,0.0,0,0.0,26.6,0.0,12.1,3.469
2008/09/01,21:10:01,164,343,158,0.1,3.2,7.6,27.4,76.4,1001.7,0.00,0,0.0,0.0,0,0.0,26.6,0.0,11.8,3.469
2008/09/01,21:20:01,163,343,156,0.1,2.8,6.7,27.4,76.8,1001.9,0.00,0,0.0,0.0,0,0.0,26.6,0.0,11.7,3.469
2008/09/01,21:30:01,161,341,157,0.1,3.0,8.6,27.4,77.0,1001.9,0.00,0,0.0,0.0,0,0.0,26.6,0.0,11.8,3.470
2008/09/01,21:40:01,152,328,145,0.0,3.1,8.2,27.5,75.4,1002.0,0.00,0,0.0,0.0,0,0.0,26.9,0.0,12.1,3.469
2008/09/01,21:50:01,144,323,140,0.1,3.5,9.1,27.5,73.2,1002.0,0.00,0,0.0,0.0,0,0.0,26.8,0.0,11.6,3.469
2008/09/01,22:00:01,140,316,137,0.1,3.1,9.3,27.6,73.6,1002.1,0.00,0,0.0,0.0,0,0.0,26.8,0.0,12.1,3.470
2008/09/01,22:10:01,150,324,140,0.1,3.3,9.0,27.5,73.7,1002.1,0.00,0,0.0,0.0,0,0.0,26.8,0.0,11.9,3.469
2008/09/01,22:20:01,132,307,110,0.0,2.7,7.9,27.4,70.8,1002.1,0.00,0,0.0,0.0,0,0.0,26.8,0.0,11.8,3.469
2008/09/01,22:30:01,155,320,135,0.0,3.1,8.4,27.3,72.2,1002.1,0.00,20,0.0,0.0,0,0.0,26.6,0.0,11.9,3.469
2008/09/01,22:40:01,146,324,144,0.1,2.3,7.2,27.3,71.5,1002.1,0.00,0,0.0,0.0,0,0.0,26.4,0.0,11.8,3.469
2008/09/01,22:50:01,146,316,132,0.0,2.5,7.5,27.4,70.2,1002.1,0.00,0,0.0,0.0,0,0.0,26.6,0.0,12.1,3.469
2008/09/01,23:00:01,129,305,117,0.0,2.3,7.4,27.5,71.2,1002.0,0.00,0,0.0,0.0,0,0.0,26.8,0.0,12.1,3.470
2008/09/01,23:10:01,140,316,130,0.0,2.5,7.5,27.4,70.0,1001.9,0.00,0,0.0,0.0,0,0.0,26.8,0.0,11.9,3.470
2008/09/01,23:20:01,145,320,140,0.1,2.8,10.5,27.4,70.3,1001.8,0.00,0,0.0,0.0,0,0.0,26.8,0.0,12.0,3.470
2008/09/01,23:30:01,136,316,127,0.1,2.8,8.3,27.4,68.9,1001.8,0.00,0,0.0,0.0,0,0.0,26.8,0.0,12.2,3.469
2008/09/01,23:40:01,140,319,127,0.0,2.5,9.9,27.5,69.5,1001.8,0.00,0,0.0,0.0,0,0.0,26.8,0.0,12.1,3.470
2008/09/01,23:50:01,144,320,126,0.0,2.8,10.8,27.5,73.3,1001.5,0.00,0,0.0,0.0,0,0.0,26.8,0.0,11.8,3.469
2008/09/02,00:00:01,139,314,131,0.1,3.9,11.8,26.0,80.6,1001.6,0.00,0,0.0,0.0,0,0.0,25.4,0.0,11.6,3.470
2008/09/02,00:10:01,119,301,113,0.1,3.3,13.8,25.4,83.4,1001.8,0.00,50,0.0,0.0,0,0.0,24.6,0.0,11.8,3.470
2008/09/02,00:20:01,117,296,117,0.1,3.5,13.3,24.7,86.1,1002.0,0.79,560,8.7,0.0,0,0.0,23.8,0.0,11.9,3.472
2008/09/02,00:30:01,127,292,110,0.0,3.3,13.0,24.2,86.5,1002.3,2.29,600,33.1,0.0,0,0.0,23.3,0.0,11.9,3.472
2008/09/02,00:40:01,97,265,82,0.2,3.2,10.2,23.7,87.6,1002.3,1.25,590,4.9,0.0,0,0.0,22.6,0.0,11.8,3.472
2008/09/02,00:50:01,173,260,73,0.0,2.7,7.1,23.8,88.2,1002.1,0.45,580,0.0,0.0,0,0.0,22.6,0.0,11.9,3.472
2008/09/02,01:00:01,79,242,332,0.0,1.9,4.5,23.8,88.2,1002.0,0.38,520,0.0,0.0,0,0.0,22.6,0.0,11.8,3.472
2008/09/02,01:10:01,151,234,294,0.3,2.0,4.3,24.0,88.6,1001.9,0.00,0,0.0,0.0,0,0.0,22.7,0.0,11.6,3.470
2008/09/02,01:20:01,157,226,281,0.6,2.1,4.5,24.1,88.5,1001.7,0.00,0,0.0,0.0,0,0.0,22.9,0.0,12.1,3.470
2008/09/02,01:30:01,105,220,337,0.2,2.2,5.1,24.2,88.8,1001.5,0.00,0,0.0,0.0,0,0.0,23.1,0.0,12.0,3.470
2008/09/02,01:40:01,174,231,285,0.3,2.3,4.7,24.2,89.0,1001.4,0.00,0,0.0,0.0,0,0.0,23.3,0.0,11.8,3.472
2008/09/02,01:50:01,113,241,316,0.1,2.1,4.2,24.4,88.9,1001.4,0.00,0,0.0,0.0,0,0.0,23.3,0.0,12.0,3.470
2008/09/02,02:00:01,177,259,47,0.1,2.1,4.4,24.5,88.2,1001.3,0.00,0,0.0,0.0,0,0.0,23.8,0.0,11.5,3.472
2008/09/02,02:10:01,100,262,75,0.0,2.0,4.6,24.8,87.8,1001.2,0.00,0,0.0,0.0,0,0.0,24.1,0.0,11.7,3.469
2008/09/02,02:20:01,88,267,83,0.0,1.2,4.3,24.8,86.3,1001.1,0.00,0,0.0,0.0,0,0.0,24.3,0.0,12.0,3.472
2008/09/02,02:30:01,83,265,81,0.0,1.2,3.3,24.9,85.7,1001.0,0.00,0,0.0,0.0,0,0.0,24.3,0.0,11.8,3.470
2008/09/02,02:40:01,119,271,89,0.0,1.5,3.6,25.1,84.7,1000.9,0.00,0,0.0,0.0,0,0.0,24.3,0.0,11.4,3.470
2008/09/02,02:50:01,83,257,61,0.0,1.5,4.5,25.2,84.0,1000.7,0.00,0,0.0,0.0,0,0.0,24.4,0.0,11.9,3.472
2008/09/02,03:00:01,93,259,76,0.0,1.5,4.6,25.3,84.1,1000.7,0.00,0,0.0,0.0,0,0.0,24.6,0.0,11.7,3.473
2008/09/02,03:10:01,103,269,83,0.1,1.8,4.7,25.4,83.6,1000.8,0.00,0,0.0,0.0,0,0.0,24.4,0.0,12.2,3.470
2008/09/02,03:20:01,98,262,75,0.1,1.6,5.0,25.4,82.8,1000.8,0.00,0,0.0,0.0,0,0.0,24.4,0.0,11.9,3.470
2008/09/02,03:30:01,92,268,85,0.0,1.7,5.0,25.4,80.2,1001.0,0.00,0,0.0,0.0,0,0.0,24.6,0.0,11.5,3.469
2008/09/02,03:40:01,79,255,78,0.0,1.4,6.3,25.6,81.0,1001.1,0.00,0,0.0,0.0,0,0.0,24.6,0.0,12.1,3.470
2008/09/02,03:50:01,93,267,79,0.0,1.7,6.4,25.7,80.3,1001.1,0.00,0,0.0,0.0,0,0.0,24.8,0.0,11.7,3.472
2008/09/02,04:00:01,98,275,94,0.0,1.8,5.8,25.7,79.2,1001.1,0.00,0,0.0,0.0,0,0.0,24.9,0.0,12.0,3.470
2008/09/02,04:10:01,101,279,98,0.0,1.8,5.8,25.8,78.2,1001.1,0.00,0,0.0,0.0,0,0.0,24.9,0.0,11.7,3.470
2008/09/02,04:20:01,102,274,95,0.0,1.8,5.8,26.0,79.0,1001.1,0.00,0,0.0,0.0,0,0.0,25.1,0.0,11.8,3.470
2008/09/02,04:30:01,96,273,90,0.0,2.0,6.1,25.9,78.4,1001.1,0.00,0,0.0,0.0,0,0.0,24.9,0.0,11.8,3.470
2008/09/02,04:40:01,95,273,91,0.1,1.9,6.1,25.9,77.8,1001.2,0.00,0,0.0,0.0,0,0.0,25.3,0.0,11.9,3.469
2008/09/02,04:50:01,91,267,81,0.0,1.9,6.0,26.1,78.6,1001.3,0.00,0,0.0,0.0,0,0.0,25.3,0.0,11.8,3.470
2008/09/02,05:00:01,93,275,91,0.0,1.6,6.4,26.1,75.2,1001.3,0.00,0,0.0,0.0,0,0.0,25.4,0.0,11.6,3.469
2008/09/02,05:10:01,107,283,105,0.0,1.8,6.2,26.4,73.5,1001.3,0.00,0,0.0,0.0,0,0.0,25.6,0.0,11.6,3.470
2008/09/02,05:20:01,90,268,90,0.0,1.6,6.7,26.4,73.0,1001.4,0.00,0,0.0,0.0,0,0.0,25.8,0.0,11.9,3.469
2008/09/02,05:30:01,105,273,81,0.0,1.8,6.1,26.4,73.3,1001.5,0.00,0,0.0,0.0,0,0.0,25.8,0.0,11.5,3.469
2008/09/02,05:40:01,85,261,75,0.0,1.9,6.4,26.4,75.5,1001.6,0.00,0,0.0,0.0,0,0.0,25.6,0.0,12.1,3.472
2008/09/02,05:50:01,85,266,81,0.0,1.9,6.0,26.3,75.3,1001.7,0.00,0,0.0,0.0,0,0.0,25.6,0.0,12.1,3.470
2008/09/02,06:00:01,92,262,81,0.0,1.9,5.6,26.4,75.3,1001.7,0.00,0,0.0,0.0,0,0.0,25.9,0.0,11.8,3.469
2008/09/02,06:10:01,85,260,79,0.1,2.0,5.3,26.3,75.1,1001.8,0.00,0,0.0,0.0,0,0.0,25.8,0.0,11.9,3.469
2008/09/02,06:20:01,81,262,69,0.0,2.3,6.7,26.3,75.8,1001.9,0.00,0,0.0,0.0,0,0.0,25.4,0.0,11.7,3.472
2008/09/02,06:30:01,79,251,73,0.0,1.9,5.3,26.4,76.3,1001.9,0.00,0,0.0,0.0,0,0.0,25.8,0.0,11.7,3.469
2008/09/02,06:40:01,79,258,68,0.0,2.2,10.2,26.5,76.4,1002.1,0.00,0,0.0,0.0,0,0.0,25.3,0.0,11.8,3.470
2008/09/02,06:50:01,125,289,97,0.1,2.5,9.4,26.4,77.4,1002.3,0.00,0,0.0,0.0,0,0.0,25.6,0.0,12.2,3.470
2008/09/02,07:00:01,158,329,146,0.0,2.6,6.7,25.8,78.2,1002.4,0.00,0,0.0,0.0,0,0.0,24.9,0.0,11.7,3.470
2008/09/02,07:10:01,118,289,44,0.0,1.8,4.7,25.6,81.3,1002.4,0.04,80,0.0,0.0,0,0.0,24.1,0.0,11.9,3.470
2008/09/02,07:20:01,81,253,68,0.0,2.2,6.0,25.5,82.0,1002.4,0.00,0,0.0,0.0,0,0.0,24.3,0.0,12.0,3.469
2008/09/02,07:30:01,80,262,73,0.0,2.0,6.7,25.8,75.9,1002.4,0.00,0,0.0,0.0,0,0.0,24.6,0.0,12.0,3.470
2008/09/02,07:40:01,99,270,88,0.0,2.2,6.5,26.4,75.0,1002.5,0.00,0,0.0,0.0,0,0.0,25.4,0.0,11.9,3.470
2008/09/02,07:50:01,95,272,85,0.0,2.0,5.8,26.5,72.2,1002.5,0.00,0,0.0,0.0,0,0.0,25.6,0.0,12.1,3.469
2008/09/02,08:00:01,116,297,110,0.0,1.7,6.1,26.6,68.0,1002.6,0.00,0,0.0,0.0,0,0.0,25.9,0.0,11.9,3.470
2008/09/02,08:10:01,126,308,113,0.0,2.1,5.6,26.9,70.6,1002.7,0.00,0,0.0,0.0,0,0.0,26.1,0.0,11.9,3.470
2008/09/02,08:20:01,108,286,103,0.0,1.5,5.4,26.9,70.3,1002.8,0.00,0,0.0,0.0,0,0.0,26.3,0.0,12.0,3.470
2008/09/02,08:30:01,106,280,96,0.0,1.8,5.4,26.9,70.1,1002.9,0.00,0,0.0,0.0,0,0.0,26.4,0.0,11.7,3.469
2008/09/02,08:40:01,109,284,95,0.0,1.7,6.4,26.9,69.7,1002.9,0.00,0,0.0,0.0,0,0.0,26.4,0.0,12.0,3.468
2008/09/02,08:50:01,128,311,127,0.0,1.5,5.4,27.1,68.7,1002.9,0.00,0,0.0,0.0,0,0.0,27.1,0.0,12.2,3.470
2008/09/02,09:00:01,138,313,135,0.0,1.8,6.6,27.2,66.8,1003.0,0.00,0,0.0,0.0,0,0.0,27.1,0.0,11.8,3.472
2008/09/02,09:10:01,128,309,127,0.1,2.0,6.6,27.4,66.4,1003.0,0.00,0,0.0,0.0,0,0.0,27.9,0.0,12.0,3.470
2008/09/02,09:20:01,129,308,124,0.0,2.1,7.3,27.5,65.7,1003.0,0.00,0,0.0,0.0,0,0.0,27.9,0.0,11.8,3.469
2008/09/02,09:30:01,143,312,128,0.0,2.4,6.6,27.5,65.6,1003.0,0.00,0,0.0,0.0,0,0.0,27.8,0.0,11.7,3.468
2008/09/02,09:40:01,108,289,91,0.0,1.8,8.4,27.7,65.5,1003.0,0.00,0,0.0,0.0,0,0.0,28.5,0.0,11.7,3.469
2008/09/02,09:50:01,107,281,101,0.0,1.9,10.3,27.6,64.1,1002.9,0.00,0,0.0,0.0,0,0.0,28.3,0.0,11.7,3.468
2008/09/02,10:00:01,100,278,96,0.0,2.1,10.1,27.6,64.2,1002.9,0.00,0,0.0,0.0,0,0.0,28.1,0.0,11.8,3.469
2008/09/02,10:10:01,116,291,107,0.0,2.2,8.6,27.7,61.6,1003.0,0.00,0,0.0,0.0,0,0.0,28.6,0.0,12.0,3.469
2008/09/02,10:20:01,125,304,120,0.1,2.7,9.3,28.1,60.0,1003.0,0.00,0,0.0,0.0,0,0.0,30.0,0.0,11.8,3.468
2008/09/02,10:30:01,126,301,114,0.0,2.4,8.5,28.5,61.1,1003.0,0.00,0,0.0,0.0,0,0.0,31.1,0.0,11.8,3.469
2008/09/02,10:40:01,116,297,114,0.0,2.4,10.8,28.1,63.5,1002.9,0.00,0,0.0,0.0,0,0.0,30.0,0.0,12.1,3.469
2008/09/02,10:50:01,116,293,110,0.0,2.3,11.3,28.0,63.8,1002.9,0.00,0,0.0,0.0,0,0.0,29.6,0.0,12.1,3.469
2008/09/02,11:00:01,113,291,111,0.0,2.0,8.4,28.1,64.7,1002.6,0.00,0,0.0,0.0,0,0.0,29.3,0.0,12.1,3.468
2008/09/02,11:10:01,125,304,113,0.0,2.4,8.4,28.4,61.5,1002.6,0.00,0,0.0,0.0,0,0.0,30.8,0.0,11.9,3.468
2008/09/02,11:20:01,135,312,132,0.0,2.7,7.2,28.3,61.4,1002.5,0.00,0,0.0,0.0,0,0.0,30.6,0.0,11.9,3.468
2008/09/02,11:30:01,127,307,117,0.0,2.1,7.8,28.4,63.8,1002.5,0.00,0,0.0,0.0,0,0.0,30.5,0.0,12.0,3.469
2008/09/02,11:40:01,146,330,134,0.1,3.2,12.6,27.6,66.4,1002.3,0.00,0,0.0,0.0,0,0.0,28.6,0.0,12.0,3.469
2008/09/02,11:50:01,157,336,153,0.1,3.3,10.1,27.7,63.8,1002.3,0.00,0,0.0,0.0,0,0.0,28.6,0.0,11.9,3.468
2008/09/02,12:00:01,149,326,146,0.1,3.3,11.7,28.2,61.4,1002.3,0.00,0,0.0,0.0,0,0.0,30.3,0.0,12.0,3.469
2008/09/02,12:10:01,148,325,144,0.0,3.1,12.3,28.1,62.0,1002.3,0.00,0,0.0,0.0,0,0.0,30.0,0.0,12.1,3.469
2008/09/02,12:20:01,149,325,145,0.0,3.1,10.4,28.2,60.7,1002.3,0.00,0,0.0,0.0,0,0.0,30.5,0.0,11.9,3.469
2008/09/02,12:30:01,148,325,144,0.1,2.9,8.7,28.7,60.8,1002.2,0.00,0,0.0,0.0,0,0.0,31.1,0.0,12.0,3.469
2008/09/02,12:40:01,149,325,146,0.1,3.3,10.0,28.5,59.5,1002.1,0.00,0,0.0,0.0,0,0.0,31.1,0.0,11.9,3.467
2008/09/02,12:50:01,147,324,142,0.0,3.4,11.6,28.2,61.7,1002.0,0.00,0,0.0,0.0,0,0.0,30.0,0.0,12.0,3.468
2008/09/02,13:00:01,149,328,146,0.0,3.2,12.1,28.3,64.1,1002.0,0.00,0,0.0,0.0,0,0.0,30.1,0.0,12.1,3.468
2008/09/02,13:10:01,147,324,133,0.1,3.2,11.3,28.3,66.8,1002.1,0.00,0,0.0,0.0,0,0.0,30.0,0.0,12.1,3.468
2008/09/02,13:20:01,148,325,128,0.1,3.5,14.1,28.6,62.0,1002.0,0.00,0,0.0,0.0,0,0.0,31.3,0.0,11.8,3.468
2008/09/02,13:30:01,145,325,135,0.1,3.9,12.4,28.2,59.7,1001.9,0.00,0,0.0,0.0,0,0.0,30.3,0.0,11.8,3.469
2008/09/02,13:40:01,148,326,141,0.1,3.6,9.6,28.4,58.8,1002.0,0.00,0,0.0,0.0,0,0.0,30.6,0.0,11.9,3.468
2008/09/02,13:50:01,155,332,149,0.0,3.3,11.7,28.3,59.3,1002.1,0.00,0,0.0,0.0,0,0.0,30.6,0.0,11.9,3.467
2008/09/02,14:00:01,148,326,146,0.1,3.2,10.1,28.1,60.3,1002.1,0.00,0,0.0,0.0,0,0.0,30.0,0.0,11.9,3.468
2008/09/02,14:10:01,146,327,140,0.1,3.2,9.9,28.2,62.4,1002.0,0.00,0,0.0,0.0,0,0.0,30.3,0.0,11.9,3.468
2008/09/02,14:20:01,164,331,150,0.0,3.1,9.9,28.4,61.5,1002.0,0.00,0,0.0,0.0,0,0.0,30.8,0.0,11.9,3.467
2008/09/02,14:30:01,147,326,146,0.0,3.0,11.7,28.2,60.4,1002.0,0.00,0,0.0,0.0,0,0.0,30.5,0.0,11.8,3.468
2008/09/02,14:40:01,145,324,139,0.1,3.2,9.8,28.1,60.9,1002.0,0.00,0,0.0,0.0,0,0.0,29.6,0.0,12.1,3.468
2008/09/02,14:50:01,150,328,147,0.1,3.4,11.3,28.1,62.2,1002.0,0.00,0,0.0,0.0,0,0.0,30.0,0.0,12.1,3.468